Regional Weather Roundup
Issued by NWS

Home | Current Version | Previous Version | Text Only | Print | Product List | Glossary Off
Versions: 1 2 3 4 5 6 7 8 9 10 11 12 13 14 15 16 17 18 19 20 21 22 23 24 25 26 27 28 29 30 31 32 33 34 35 36 37 38 39 40 41 42 43 44 45 46 47 48 49 50

000
ASUS43 KLMK 290602
RWRKY
KENTUCKY REGIONAL WEATHER ROUNDUP
NATIONAL WEATHER SERVICE LOUISVILLE KY
100 AM EST THU JAN 29 2015

NOTE "FAIR" INDICATES FEW OR NO CLOUDS BELOW 12,000 FEET
WITH NO SIGNIFICANT WEATHER AND/OR OBSTRUCTIONS TO VISIBILITY.

KYZ001>023-026-027-061>063-070>075-290700-
WESTERN AND SOUTH CENTRAL KENTUCKY

CITY           SKY/WX    TMP DP  RH WIND       PRES   REMARKS
PADUCAH        MOCLDY    50  31  48 S10G18    29.99F
HENDERSON      CLOUDY    43  27  52 S12       29.99F
OWENSBORO      CLOUDY    42  28  58 S14       30.02F
HOPKINSVILLE   CLOUDY    45  28  51 S7        30.06F
BOWLING GREEN  CLOUDY    34  23  64 CALM      30.09F
GLASGOW        NOT AVBL
$$

KYZ024-025-028>034-038-045-046-053-290700-
NORTH CENTRAL KENTUCKY

CITY           SKY/WX    TMP DP  RH WIND       PRES   REMARKS
LOUISVILLE/SDF CLOUDY    36  18  48 SE10      30.08F WCI  28
LOUISVILLE/LOU MOCLDY    36  17  46 SE8       30.08F WCI  30
FORT KNOX      MOCLDY    38  18  44 S13       30.04F WCI  30
$$

KYZ035>037-039>044-047>052-055>060-089>105-290700-
NORTHEAST KENTUCKY

CITY           SKY/WX    TMP DP  RH WIND       PRES   REMARKS
LEXINGTON      CLOUDY    33  20  58 S13       30.12F WCI  24
COVINGTON      CLOUDY    31  20  63 SE12      30.10F WCI  22
FRANKFORT      MOCLDY    33  20  58 SE9       30.10F WCI  25
$$

KYZ054-064>069-076>088-106>120-290700-
SOUTHEAST KENTUCKY

CITY           SKY/WX    TMP DP  RH WIND       PRES   REMARKS
JACKSON        MOCLDY    32  19  58 SE3       30.15F
LONDON         PTCLDY    28  21  75 SE5       30.15F WCI  23
SOMERSET       NOT AVBL
MIDDLESBORO    PTCLDY    32  23  69 SW5       30.23S WCI  27
MONTICELLO     PTCLDY    37  18  46 S8        30.17F WCI  31
$$



USA.gov is the U.S. government's official web portal to all federal, state and local government web resources and services.